When you browse on this site, cookies collect data to enhance your experience and personalize the content and advertising you see.
Visit our Privacy Policy to learn more. By continuing to use the site, you agree to this use of cookies and data.
  • Em Portugal
  • Lista de países
  • Para 7 dias
  • Temperatura da água
  • Mapa do tempo
  • Widgets de tempo
  • user-avatar
    Iniciar Sessão

    Previsão horária em Orsha

    Hoje, 1 Junho, Segunda-feira

    Tempo Temperatura Precipitação Vento Pressão Humidade
    00:00 +7°C° 0 mm 5 m/s 744 mmHg 81%
    01:00 +6°C° 0 mm 5 m/s 744 mmHg 81%
    02:00 +5°C° 0 mm 4 m/s 744 mmHg 82%
    03:00 +5°C° 0 mm 5 m/s 744 mmHg 82%
    04:00 +5°C° 0 mm 5 m/s 744 mmHg 83%
    05:00 +5°C° 0 mm 5 m/s 744 mmHg 83%
    06:00 +5°C° 0 mm 6 m/s 744 mmHg 80%
    07:00 +7°C° 0 mm 6 m/s 744 mmHg 78%
    08:00 +8°C° 0 mm 7 m/s 744 mmHg 75%
    09:00 +8°C° 0.3 mm 7 m/s 744 mmHg 75%
    10:00 +7°C° 0.3 mm 8 m/s 744 mmHg 75%
    11:00 +9°C° 0.3 mm 8 m/s 744 mmHg 75%
    12:00 +7°C° 0.3 mm 8 m/s 744 mmHg 81%
    13:00 +6°C° 0.3 mm 7 m/s 744 mmHg 86%
    14:00 +5°C° 0.3 mm 6 m/s 744 mmHg 91%
    15:00 +7°C° 0.2 mm 6 m/s 744 mmHg 90%
    16:00 +8°C° 0.2 mm 6 m/s 743 mmHg 90%
    17:00 +8°C° 0.2 mm 6 m/s 743 mmHg 89%
    18:00 +8°C° 0.7 mm 7 m/s 743 mmHg 91%
    19:00 +8°C° 0.7 mm 7 m/s 743 mmHg 92%
    20:00 +8°C° 0.7 mm 7 m/s 742 mmHg 94%
    21:00 +8°C° 0.9 mm 7 m/s 742 mmHg 93%
    22:00 +8°C° 0.9 mm 7 m/s 741 mmHg 93%
    23:00 +7°C° 0.9 mm 8 m/s 741 mmHg 93%

    Amanhã, 2 Junho, Terça-feira

    Tempo Temperatura Precipitação Vento Pressão Humidade
    00:00 +7°C° 0.9 mm 8 m/s 740 mmHg 93%
    01:00 +7°C° 0.9 mm 8 m/s 740 mmHg 93%
    02:00 +7°C° 0.9 mm 9 m/s 740 mmHg 93%
    03:00 +7°C° 0.7 mm 9 m/s 739 mmHg 94%
    04:00 +6°C° 0.7 mm 9 m/s 739 mmHg 94%
    05:00 +6°C° 0.7 mm 9 m/s 738 mmHg 94%
    06:00 +6°C° 1.3 mm 9 m/s 738 mmHg 94%
    07:00 +6°C° 1.3 mm 9 m/s 738 mmHg 94%
    08:00 +6°C° 1.3 mm 9 m/s 739 mmHg 94%
    09:00 +6°C° 0.6 mm 9 m/s 739 mmHg 94%
    10:00 +7°C° 0.6 mm 9 m/s 739 mmHg 93%
    11:00 +7°C° 0.6 mm 9 m/s 739 mmHg 93%
    12:00 +7°C° 0.9 mm 9 m/s 739 mmHg 94%
    13:00 +7°C° 0.9 mm 9 m/s 739 mmHg 94%
    14:00 +7°C° 0.9 mm 8 m/s 739 mmHg 94%
    15:00 +9°C° 0.7 mm 8 m/s 739 mmHg 94%
    16:00 +9°C° 0.7 mm 7 m/s 739 mmHg 94%
    17:00 +9°C° 0.7 mm 6 m/s 739 mmHg 94%
    18:00 +9°C° 0.3 mm 6 m/s 739 mmHg 94%
    19:00 +9°C° 0.3 mm 6 m/s 739 mmHg 95%
    20:00 +9°C° 0.3 mm 5 m/s 739 mmHg 95%
    21:00 +9°C° 0.1 mm 5 m/s 739 mmHg 96%
    22:00 +8°C° 0.1 mm 4 m/s 739 mmHg 96%
    23:00 +9°C° 0.1 mm 3 m/s 739 mmHg 97%

    Depois de amanhã, 3 Junho, Quarta-feira

    Tempo Temperatura Precipitação Vento Pressão Humidade
    00:00 +8°C° 0 mm 3 m/s 739 mmHg 97%
    01:00 +8°C° 0 mm 3 m/s 739 mmHg 97%
    02:00 +7°C° 0 mm 3 m/s 739 mmHg 98%
    03:00 +7°C° 0 mm 3 m/s 739 mmHg 97%
    04:00 +7°C° 0 mm 3 m/s 739 mmHg 97%
    05:00 +8°C° 0 mm 3 m/s 739 mmHg 97%
    06:00 +9°C° 0 mm 3 m/s 739 mmHg 94%
    07:00 +11°C° 0 mm 3 m/s 740 mmHg 91%
    08:00 +12°C° 0 mm 4 m/s 740 mmHg 87%
    09:00 +13°C° 0.3 mm 4 m/s 739 mmHg 84%
    10:00 +14°C° 0.3 mm 5 m/s 739 mmHg 81%
    11:00 +15°C° 0.3 mm 5 m/s 739 mmHg 77%
    12:00 +15°C° 0.8 mm 5 m/s 739 mmHg 78%
    13:00 +16°C° 0.8 mm 5 m/s 739 mmHg 78%
    14:00 +16°C° 0.8 mm 5 m/s 738 mmHg 79%
    15:00 +17°C° 0.9 mm 4 m/s 738 mmHg 80%
    16:00 +17°C° 0.9 mm 4 m/s 738 mmHg 81%
    17:00 +17°C° 0.9 mm 4 m/s 737 mmHg 83%
    18:00 +14°C° 0.8 mm 4 m/s 737 mmHg 85%
    19:00 +13°C° 0.8 mm 3 m/s 737 mmHg 87%
    20:00 +12°C° 0.8 mm 3 m/s 737 mmHg 89%
    21:00 +11°C° 0.1 mm 3 m/s 737 mmHg 91%
    22:00 +11°C° 0.1 mm 3 m/s 737 mmHg 92%
    23:00 +10°C° 0.1 mm 2 m/s 737 mmHg 94%

    4 Junho, Quinta-feira

    Tempo Temperatura Precipitação Vento Pressão Humidade
    00:00 +10°C° 0 mm 2 m/s 737 mmHg 94%
    01:00 +9°C° 0 mm 2 m/s 737 mmHg 95%
    02:00 +9°C° 0 mm 2 m/s 737 mmHg 95%
    03:00 +9°C° 0 mm 2 m/s 737 mmHg 95%
    04:00 +9°C° 0 mm 2 m/s 737 mmHg 95%
    05:00 +11°C° 0 mm 1 m/s 736 mmHg 95%
    06:00 +12°C° 0 mm 1 m/s 736 mmHg 93%
    07:00 +13°C° 0 mm 1 m/s 736 mmHg 90%
    08:00 +14°C° 0 mm 2 m/s 736 mmHg 88%
    09:00 +14°C° 0.4 mm 2 m/s 736 mmHg 87%
    10:00 +13°C° 0.4 mm 3 m/s 736 mmHg 85%
    11:00 +13°C° 0.4 mm 3 m/s 736 mmHg 84%
    12:00 +14°C° 0.1 mm 3 m/s 736 mmHg 80%
    13:00 +15°C° 0.1 mm 2 m/s 735 mmHg 75%
    14:00 +16°C° 0.1 mm 2 m/s 735 mmHg 71%
    15:00 +16°C° 0.1 mm 2 m/s 735 mmHg 73%
    16:00 +16°C° 0.1 mm 2 m/s 735 mmHg 74%
    17:00 +16°C° 0.1 mm 2 m/s 735 mmHg 76%
    18:00 +15°C° 0.2 mm 2 m/s 735 mmHg 81%
    19:00 +14°C° 0.2 mm 2 m/s 735 mmHg 85%
    20:00 +13°C° 0.2 mm 2 m/s 735 mmHg 90%
    21:00 +12°C° 0 mm 2 m/s 735 mmHg 91%
    22:00 +10°C° 0 mm 2 m/s 735 mmHg 93%
    23:00 +10°C° 0 mm 2 m/s 735 mmHg 94%

    5 Junho, Sexta-feira

    Tempo Temperatura Precipitação Vento Pressão Humidade
    00:00 +9°C° 0 mm 2 m/s 735 mmHg 95%
    01:00 +9°C° 0 mm 2 m/s 735 mmHg 95%
    02:00 +8°C° 0 mm 3 m/s 735 mmHg 96%
    03:00 +8°C° 0 mm 3 m/s 735 mmHg 96%
    04:00 +9°C° 0 mm 3 m/s 735 mmHg 96%
    05:00 +9°C° 0 mm 3 m/s 736 mmHg 97%
    06:00 +10°C° 0 mm 3 m/s 736 mmHg 94%
    07:00 +12°C° 0 mm 4 m/s 736 mmHg 91%
    08:00 +13°C° 0 mm 4 m/s 736 mmHg 88%
    09:00 +14°C° 0.1 mm 4 m/s 737 mmHg 83%
    10:00 +17°C° 0.1 mm 4 m/s 737 mmHg 79%
    11:00 +17°C° 0.1 mm 5 m/s 737 mmHg 74%
    12:00 +18°C° 0.1 mm 4 m/s 737 mmHg 71%
    13:00 +19°C° 0.1 mm 4 m/s 737 mmHg 68%
    14:00 +20°C° 0.1 mm 3 m/s 737 mmHg 65%
    15:00 +20°C° 0 mm 3 m/s 737 mmHg 67%
    16:00 +20°C° 0 mm 3 m/s 737 mmHg 69%
    17:00 +20°C° 0 mm 3 m/s 737 mmHg 71%
    18:00 +18°C° 0 mm 3 m/s 737 mmHg 77%
    19:00 +17°C° 0 mm 3 m/s 737 mmHg 84%
    20:00 +14°C° 0 mm 3 m/s 737 mmHg 90%
    21:00 +13°C° 0 mm 3 m/s 737 mmHg 91%
    22:00 +13°C° 0 mm 3 m/s 737 mmHg 93%
    23:00 +12°C° 0 mm 3 m/s 738 mmHg 94%

    6 Junho, Sábado

    Tempo Temperatura Precipitação Vento Pressão Humidade
    00:00 +11°C° 0 mm 3 m/s 738 mmHg 95%
    01:00 +11°C° 0 mm 3 m/s 738 mmHg 95%
    02:00 +10°C° 0 mm 3 m/s 738 mmHg 95%
    03:00 +11°C° 0 mm 4 m/s 738 mmHg 95%
    04:00 +11°C° 0 mm 4 m/s 738 mmHg 95%
    05:00 +11°C° 0 mm 4 m/s 738 mmHg 95%
    06:00 +13°C° 0 mm 4 m/s 738 mmHg 91%
    07:00 +14°C° 0 mm 5 m/s 738 mmHg 88%
    08:00 +16°C° 0 mm 5 m/s 738 mmHg 84%
    09:00 +17°C° 0 mm 6 m/s 738 mmHg 81%
    10:00 +19°C° 0 mm 6 m/s 738 mmHg 78%
    11:00 +21°C° 0 mm 6 m/s 738 mmHg 75%
    12:00 +21°C° 0.2 mm 6 m/s 737 mmHg 76%
    13:00 +21°C° 0.2 mm 6 m/s 737 mmHg 77%
    14:00 +22°C° 0.2 mm 6 m/s 737 mmHg 78%
    15:00 +21°C° 1.1 mm 6 m/s 736 mmHg 81%
    16:00 +21°C° 1.1 mm 5 m/s 736 mmHg 84%
    17:00 +21°C° 1.1 mm 5 m/s 736 mmHg 87%
    18:00 +20°C° 0.7 mm 4 m/s 736 mmHg 89%
    19:00 +19°C° 0.7 mm 3 m/s 736 mmHg 92%
    20:00 +18°C° 0.7 mm 3 m/s 736 mmHg 94%
    21:00 +17°C° 0.1 mm 3 m/s 737 mmHg 95%
    22:00 +16°C° 0.1 mm 2 m/s 737 mmHg 96%
    23:00 +16°C° 0.1 mm 2 m/s 737 mmHg 98%
    Mostrar mais